Weather History for Wilmington, NC

Change the Weather History Date:

Thursday, June 5, 2014

  Actual Average Record
Temperature  
Mean Temperature 81 °F 76 °F  
Max Temperature 90 °F 85 °F 100 °F (1943)
Min Temperature 72 °F 66 °F 51 °F (1988)
Degree Days  
Heating Degree Days 0 0  
Month to date heating degree days 0 0  
Since 1 June heating degree days 0 0  
Since 1 July heating degree days 2432 2409  
Cooling Degree Days 16 11  
Month to date cooling degree days 47 51  
Year to date cooling degree days 454 332  
Since 1 June cooling degree days 47 51  
Growing Degree Days 32 (Base 50)    
Moisture  
Dew Point 70 °F    
Average Humidity 70    
Maximum Humidity 84    
Minimum Humidity 56    
Precipitation  
Precipitation T in 0.17 in 3.07 in (1995)
Month to date precipitation T 0.81  
Year to date precipitation 19.24 19.71  
Sea Level Pressure  
Sea Level Pressure 29.80 in    
Wind  
Wind Speed 13 mph (SW)    
Max Wind Speed 23 mph    
Max Gust Speed 29 mph    
Visibility 10 miles    
Events      
T = Trace of Precipitation, MM = Missing Value Source: NWS Daily Summary

Daily Weather History Graph

Daily Weather History Graph

Search for Another Location

Airport:

Trip Planner

Search our weather history database for the weather conditions in past years. The results will help you decide how hot, cold, wet, or windy it might be!

Date:

Astronomy

Jun. 05, 2014 Rise Set
Actual Time 5:59 AM EDT 8:20 PM EDT
Civil Twilight 5:30 AM EDT 8:49 PM EDT
Nautical Twilight 4:55 AM EDT 9:25 PM EDT
Astronomical Twilight 4:16 AM EDT 10:04 PM EDT
Moon 12:59 PM EDT (6/5) 1:01 AM EDT (6/5)
Length of Visible Light 15h 19m
Length of Day
14h 20m
Waxing Crescent, 48% of the Moon is Illuminated
Jun 5
Waxing Crescent
Jun 5
First Quarter
Jun 13
Full
Jun 19
Last Quarter
Jun 27
New

Hourly Weather History & Observations

Time (EDT) Temp. Heat Index Dew Point Humidity Pressure Visibility Wind Dir Wind Speed Gust Speed Precip Events Conditions
12:53 AM 75.9 °F - 68.0 °F 76% 29.85 in 10.0 mi SW 13.8 mph 20.7 mph N/A   Clear
1:53 AM 75.9 °F - 68.0 °F 76% 29.84 in 10.0 mi SW 13.8 mph 19.6 mph N/A   Clear
2:53 AM 75.9 °F - 68.0 °F 76% 29.83 in 10.0 mi SW 11.5 mph - N/A   Clear
3:53 AM 75.9 °F - 68.0 °F 76% 29.83 in 10.0 mi SW 12.7 mph - N/A   Clear
4:53 AM 75.9 °F - 69.1 °F 79% 29.82 in 10.0 mi SW 11.5 mph - N/A   Clear
5:53 AM 75.0 °F - 69.1 °F 82% 29.81 in 10.0 mi SSW 11.5 mph - N/A   Clear
6:53 AM 75.9 °F - 69.1 °F 79% 29.82 in 10.0 mi SSW 13.8 mph - N/A   Clear
7:53 AM 78.1 °F - 70.0 °F 76% 29.82 in 10.0 mi SW 12.7 mph - N/A   Clear
8:53 AM 82.0 °F 86.3 °F 71.1 °F 69% 29.82 in 10.0 mi SSW 15.0 mph 23.0 mph N/A   Clear
9:53 AM 84.0 °F 89.0 °F 71.1 °F 65% 29.82 in 10.0 mi SW 16.1 mph - N/A   Clear
10:53 AM 84.9 °F 90.7 °F 72.0 °F 65% 29.81 in 10.0 mi SSW 16.1 mph 23.0 mph N/A   Clear
11:53 AM 87.1 °F 93.6 °F 72.0 °F 61% 29.80 in 10.0 mi SW 15.0 mph - N/A   Partly Cloudy
12:53 PM 84.0 °F 89.0 °F 71.1 °F 65% 29.78 in 10.0 mi SSW 15.0 mph - N/A   Clear
1:53 PM 88.0 °F 94.7 °F 72.0 °F 59% 29.77 in 10.0 mi SW 16.1 mph - N/A   Clear
2:53 PM 89.1 °F 96.0 °F 72.0 °F 57% 29.75 in 10.0 mi South 17.3 mph 23.0 mph N/A   Clear
3:53 PM 88.0 °F 93.8 °F 71.1 °F 57% 29.75 in 10.0 mi SSW 16.1 mph 26.5 mph N/A   Clear
4:53 PM 86.0 °F 91.5 °F 71.1 °F 61% 29.76 in 10.0 mi SSW 19.6 mph 26.5 mph N/A   Clear
5:53 PM 82.0 °F 86.3 °F 71.1 °F 69% 29.75 in 10.0 mi SSW 15.0 mph 26.5 mph N/A   Clear
6:53 PM 80.1 °F 83.6 °F 71.1 °F 74% 29.78 in 10.0 mi SW 16.1 mph 21.9 mph N/A   Partly Cloudy
7:53 PM 79.0 °F - 72.0 °F 79% 29.77 in 10.0 mi SSW 12.7 mph 21.9 mph N/A   Scattered Clouds
8:53 PM 78.1 °F - 72.0 °F 81% 29.81 in 10.0 mi WSW 8.1 mph - N/A   Mostly Cloudy
9:53 PM 77.0 °F - 70.0 °F 79% 29.81 in 10.0 mi SSW 11.5 mph - 0.00 in   Mostly Cloudy
10:53 PM 75.0 °F - 69.1 °F 82% 29.83 in 10.0 mi SSW 8.1 mph - N/A   Scattered Clouds
11:53 PM 73.9 °F - 68.0 °F 82% 29.84 in 10.0 mi Calm Calm - N/A   Partly Cloudy